Time,TemperatureF,DewpointF,PressureIn,WindDirection,WindDirectionDegrees,WindSpeedMPH,WindSpeedGustMPH,Humidity,HourlyPrecipIn,Conditions,Clouds,dailyrainin,SoftwareType,DateUTC
2013-05-31 00:02:00,63.9,61.9,28.74,SSE,158,4.0,6.0,93,0.00,,,0.00,meteohub,2013-05-31 05:02:00,
2013-05-31 00:07:00,64.0,62.1,28.74,SSW,202,4.0,8.0,93,0.00,,,0.00,meteohub,2013-05-31 05:07:00,
2013-05-31 00:12:00,64.0,62.1,28.71,East,90,5.0,8.0,93,0.00,,,0.00,meteohub,2013-05-31 05:12:00,
2013-05-31 00:17:00,64.0,62.1,28.71,SSE,158,4.0,8.0,93,0.00,,,0.00,meteohub,2013-05-31 05:17:00,
2013-05-31 00:22:00,64.0,62.1,28.71,SE,135,4.0,8.0,93,0.00,,,0.00,meteohub,2013-05-31 05:22:00,
2013-05-31 00:27:00,63.9,61.9,28.71,South,180,1.0,6.0,93,0.00,,,0.00,meteohub,2013-05-31 05:27:00,
2013-05-31 00:32:00,63.9,61.9,28.71,SSW,202,2.0,6.0,93,0.00,,,0.00,meteohub,2013-05-31 05:32:00,
2013-05-31 00:37:00,64.0,62.1,28.71,SSE,158,3.0,6.0,93,0.00,,,0.00,meteohub,2013-05-31 05:37:00,
2013-05-31 00:42:00,64.0,62.1,28.71,SW,225,5.0,9.0,93,0.00,,,0.00,meteohub,2013-05-31 05:42:00,
2013-05-31 00:47:00,64.2,62.2,28.71,SSE,158,3.0,9.0,93,0.00,,,0.00,meteohub,2013-05-31 05:47:00,
2013-05-31 00:52:00,64.4,62.1,28.71,SSW,202,3.0,8.0,92,0.00,,,0.00,meteohub,2013-05-31 05:52:00,
2013-05-31 00:57:00,64.6,62.2,28.71,SSE,158,2.0,11.0,92,0.00,,,0.00,meteohub,2013-05-31 05:57:00,
2013-05-31 01:02:00,64.4,62.1,28.71,SSW,202,5.0,11.0,92,0.00,,,0.00,meteohub,2013-05-31 06:02:00,
2013-05-31 01:07:00,64.4,62.1,28.71,South,180,3.0,11.0,92,0.00,,,0.00,meteohub,2013-05-31 06:07:00,
2013-05-31 01:12:00,64.6,62.2,28.69,SW,225,6.0,8.0,92,0.00,,,0.00,meteohub,2013-05-31 06:12:00,
2013-05-31 01:17:00,64.6,62.2,28.69,SE,135,3.0,7.0,92,0.00,,,0.00,meteohub,2013-05-31 06:17:00,
2013-05-31 01:22:00,64.6,62.2,28.69,SSE,158,3.0,8.0,92,0.00,,,0.00,meteohub,2013-05-31 06:22:00,
2013-05-31 01:27:00,64.6,62.2,28.71,WSW,248,4.0,8.0,92,0.00,,,0.00,meteohub,2013-05-31 06:27:00,
2013-05-31 01:32:00,64.6,62.2,28.71,SSW,202,6.0,6.0,92,0.00,,,0.00,meteohub,2013-05-31 06:32:00,
2013-05-31 01:37:00,64.8,62.4,28.71,South,180,6.0,8.0,92,0.00,,,0.00,meteohub,2013-05-31 06:37:00,
2013-05-31 01:42:00,64.6,62.6,28.71,South,180,3.0,10.0,93,0.00,,,0.00,meteohub,2013-05-31 06:42:00,
2013-05-31 01:47:00,64.0,62.1,28.71,SSE,158,3.0,10.0,93,0.00,,,0.00,meteohub,2013-05-31 06:47:00,
2013-05-31 01:52:00,63.9,62.1,28.71,SSE,158,6.0,10.0,94,0.00,,,0.00,meteohub,2013-05-31 06:52:00,
2013-05-31 01:57:00,63.7,62.2,28.71,SSE,158,4.0,8.0,95,0.00,,,0.00,meteohub,2013-05-31 06:57:00,
2013-05-31 02:02:00,63.5,62.1,28.69,SSE,158,7.0,15.0,95,0.00,,,0.00,meteohub,2013-05-31 07:02:00,
2013-05-31 02:07:00,63.3,61.9,28.69,SSE,158,4.0,15.0,95,0.00,,,0.00,meteohub,2013-05-31 07:07:00,
2013-05-31 02:12:00,63.1,61.7,28.69,SSE,158,5.0,7.0,95,0.00,,,0.00,meteohub,2013-05-31 07:12:00,
2013-05-31 02:17:00,63.0,61.5,28.69,SSE,158,1.0,7.0,95,0.00,,,0.00,meteohub,2013-05-31 07:17:00,
2013-05-31 02:22:00,62.8,61.3,28.69,SSE,158,3.0,6.0,95,0.00,,,0.00,meteohub,2013-05-31 07:22:00,
2013-05-31 02:27:00,62.8,61.3,28.69,SE,135,3.0,7.0,95,0.00,,,0.00,meteohub,2013-05-31 07:27:00,
2013-05-31 02:32:00,62.6,61.2,28.69,SSE,158,5.0,7.0,95,0.00,,,0.00,meteohub,2013-05-31 07:32:00,
2013-05-31 02:37:00,62.4,61.3,28.69,SSE,158,4.0,7.0,96,0.00,,,0.00,meteohub,2013-05-31 07:37:00,
2013-05-31 02:42:00,62.6,61.2,28.69,SSW,202,1.0,6.0,95,0.00,,,0.00,meteohub,2013-05-31 07:42:00,
2013-05-31 02:47:00,62.4,61.3,28.69,SSE,158,3.0,6.0,96,0.00,,,0.00,meteohub,2013-05-31 07:47:00,
2013-05-31 02:52:00,62.4,61.3,28.69,SSE,158,2.0,9.0,96,0.00,,,0.00,meteohub,2013-05-31 07:52:00,
2013-05-31 02:57:00,62.2,61.2,28.66,SSE,158,2.0,9.0,96,0.00,,,0.00,meteohub,2013-05-31 07:57:00,
2013-05-31 03:02:00,62.2,61.2,28.66,SSE,158,2.0,6.0,96,0.00,,,0.00,meteohub,2013-05-31 08:02:00,
2013-05-31 03:07:00,62.2,61.2,28.66,SE,135,9.0,9.0,96,0.00,,,0.00,meteohub,2013-05-31 08:07:00,
2013-05-31 03:12:00,62.1,61.0,28.66,South,180,6.0,9.0,96,0.00,,,0.00,meteohub,2013-05-31 08:12:00,
2013-05-31 03:17:00,62.1,61.0,28.66,SSE,158,3.0,9.0,96,0.00,,,0.00,meteohub,2013-05-31 08:17:00,
2013-05-31 03:22:00,61.9,60.8,28.66,SSE,158,1.0,9.0,96,0.00,,,0.00,meteohub,2013-05-31 08:22:00,
2013-05-31 03:27:00,61.9,60.8,28.69,SSW,202,2.0,6.0,96,0.00,,,0.00,meteohub,2013-05-31 08:27:00,
2013-05-31 03:32:00,61.9,60.8,28.69,SSE,158,2.0,4.0,96,0.00,,,0.00,meteohub,2013-05-31 08:32:00,
2013-05-31 03:37:00,61.9,60.8,28.69,SSE,158,2.0,5.0,96,0.00,,,0.00,meteohub,2013-05-31 08:37:00,
2013-05-31 03:42:00,61.9,60.8,28.69,SSE,158,2.0,6.0,96,0.00,,,0.00,meteohub,2013-05-31 08:42:00,
2013-05-31 03:47:00,61.9,60.8,28.69,South,180,2.0,6.0,96,0.00,,,0.00,meteohub,2013-05-31 08:47:00,
2013-05-31 03:52:00,61.9,60.8,28.69,SSE,158,5.0,6.0,96,0.00,,,0.00,meteohub,2013-05-31 08:52:00,
2013-05-31 03:57:00,61.9,60.8,28.69,SSE,158,2.0,6.0,96,0.00,,,0.00,meteohub,2013-05-31 08:57:00,
2013-05-31 04:02:00,61.9,60.8,28.69,SSE,158,2.0,5.0,96,0.00,,,0.00,meteohub,2013-05-31 09:02:00,
2013-05-31 04:07:00,61.9,60.8,28.69,SSE,158,0.0,5.0,96,0.00,,,0.00,meteohub,2013-05-31 09:07:00,
2013-05-31 04:12:00,61.9,60.8,28.69,SSE,158,4.0,4.0,96,0.00,,,0.00,meteohub,2013-05-31 09:12:00,
2013-05-31 04:17:00,61.9,60.8,28.69,SSE,158,0.0,5.0,96,0.00,,,0.00,meteohub,2013-05-31 09:17:00,
2013-05-31 04:22:00,61.7,60.6,28.69,SE,135,5.0,6.0,96,0.00,,,0.00,meteohub,2013-05-31 09:22:00,
2013-05-31 04:27:00,61.7,60.6,28.69,SSE,158,2.0,6.0,96,0.00,,,0.00,meteohub,2013-05-31 09:27:00,
2013-05-31 04:32:00,61.7,60.6,28.69,South,180,1.0,6.0,96,0.00,,,0.00,meteohub,2013-05-31 09:32:00,
2013-05-31 04:37:00,61.7,60.6,28.69,South,180,2.0,5.0,96,0.00,,,0.00,meteohub,2013-05-31 09:37:00,
2013-05-31 04:42:00,61.7,60.6,28.69,SSE,158,1.0,4.0,96,0.00,,,0.00,meteohub,2013-05-31 09:42:00,
2013-05-31 04:47:00,61.9,60.8,28.69,SE,135,4.0,4.0,96,0.00,,,0.00,meteohub,2013-05-31 09:47:00,
2013-05-31 04:52:00,61.9,60.8,28.69,SSE,158,2.0,5.0,96,0.00,,,0.00,meteohub,2013-05-31 09:52:00,
2013-05-31 04:57:00,61.9,60.8,28.69,SSE,158,0.0,6.0,96,0.00,,,0.00,meteohub,2013-05-31 09:57:00,
2013-05-31 05:02:00,61.9,60.4,28.69,SSW,202,3.0,6.0,95,0.00,,,0.00,meteohub,2013-05-31 10:02:00,
2013-05-31 05:07:00,62.1,60.3,28.69,SSE,158,2.0,6.0,94,0.00,,,0.00,meteohub,2013-05-31 10:07:00,
2013-05-31 05:12:00,61.9,60.1,28.69,SSE,158,4.0,6.0,94,0.00,,,0.00,meteohub,2013-05-31 10:12:00,
2013-05-31 05:17:00,62.1,60.1,28.69,South,180,4.0,6.0,93,0.00,,,0.00,meteohub,2013-05-31 10:17:00,
2013-05-31 05:22:00,62.1,59.7,28.69,South,180,4.0,6.0,92,0.00,,,0.00,meteohub,2013-05-31 10:22:00,
2013-05-31 05:27:00,62.1,59.7,28.69,South,180,6.0,6.0,92,0.00,,,0.00,meteohub,2013-05-31 10:27:00,
2013-05-31 05:32:00,62.1,59.7,28.69,South,180,6.0,6.0,92,0.00,,,0.00,meteohub,2013-05-31 10:32:00,
2013-05-31 05:37:00,62.1,59.2,28.69,SSE,158,4.0,6.0,90,0.00,,,0.00,meteohub,2013-05-31 10:37:00,
2013-05-31 05:42:00,62.1,58.8,28.71,SSE,158,1.0,8.0,89,0.00,,,0.00,meteohub,2013-05-31 10:42:00,
2013-05-31 05:47:00,62.1,58.8,28.71,SSE,158,4.0,8.0,89,0.00,,,0.00,meteohub,2013-05-31 10:47:00,
2013-05-31 05:52:00,62.1,58.5,28.71,South,180,3.0,8.0,88,0.00,,,0.00,meteohub,2013-05-31 10:52:00,
2013-05-31 05:57:00,62.1,58.1,28.69,SSE,158,1.0,8.0,87,0.00,,,0.00,meteohub,2013-05-31 10:57:00,
2013-05-31 06:02:00,62.1,58.1,28.69,South,180,2.0,7.0,87,0.00,,,0.00,meteohub,2013-05-31 11:02:00,
2013-05-31 06:07:00,62.1,57.7,28.69,SSE,158,1.0,7.0,86,0.00,,,0.00,meteohub,2013-05-31 11:07:00,
2013-05-31 06:12:00,62.1,57.6,28.69,ESE,112,4.0,6.0,85,0.00,,,0.00,meteohub,2013-05-31 11:12:00,
2013-05-31 06:17:00,62.2,57.4,28.69,SSE,158,11.0,11.0,84,0.00,,,0.00,meteohub,2013-05-31 11:17:00,
2013-05-31 06:22:00,62.2,57.4,28.69,SSE,158,4.0,11.0,84,0.00,,,0.00,meteohub,2013-05-31 11:22:00,
2013-05-31 06:27:00,62.2,57.4,28.69,SSE,158,1.0,11.0,84,0.00,,,0.00,meteohub,2013-05-31 11:27:00,
2013-05-31 06:32:00,62.2,57.0,28.69,SSE,158,6.0,11.0,83,0.00,,,0.00,meteohub,2013-05-31 11:32:00,
2013-05-31 06:37:00,62.4,56.8,28.69,SSW,202,4.0,13.0,82,0.00,,,0.00,meteohub,2013-05-31 11:37:00,
2013-05-31 06:42:00,62.4,56.8,28.69,SSW,202,3.0,13.0,82,0.00,,,0.00,meteohub,2013-05-31 11:42:00,
2013-05-31 06:47:00,62.4,56.5,28.69,SSW,202,2.0,13.0,81,0.00,,,0.00,meteohub,2013-05-31 11:47:00,
2013-05-31 06:52:00,62.4,56.5,28.69,SW,225,2.0,9.0,81,0.00,,,0.00,meteohub,2013-05-31 11:52:00,
2013-05-31 06:58:00,62.2,55.9,28.69,SSE,158,0.0,10.0,80,0.00,,,0.00,meteohub,2013-05-31 11:58:00,
2013-05-31 07:03:00,62.2,55.9,28.69,SSW,202,4.0,10.0,80,0.00,,,0.00,meteohub,2013-05-31 12:03:00,
2013-05-31 07:08:00,62.1,55.4,28.69,South,180,4.0,12.0,79,0.00,,,0.00,meteohub,2013-05-31 12:08:00,
2013-05-31 07:13:00,62.1,55.4,28.69,SSE,158,4.0,12.0,79,0.00,,,0.00,meteohub,2013-05-31 12:13:00,
2013-05-31 07:18:00,62.2,55.2,28.69,South,180,5.0,9.0,78,0.00,,,0.00,meteohub,2013-05-31 12:18:00,
2013-05-31 07:23:00,62.2,54.9,28.69,SSE,158,6.0,6.0,77,0.00,,,0.00,meteohub,2013-05-31 12:23:00,
2013-05-31 07:28:00,62.6,55.2,28.69,SSE,158,6.0,6.0,77,0.00,,,0.00,meteohub,2013-05-31 12:28:00,
2013-05-31 07:34:00,62.8,54.7,28.69,South,180,3.0,10.0,75,0.00,,,0.00,meteohub,2013-05-31 12:34:00,
2013-05-31 07:39:00,63.0,54.9,28.69,South,180,9.0,10.0,75,0.00,,,0.00,meteohub,2013-05-31 12:39:00,
2013-05-31 07:44:00,63.0,54.5,28.69,South,180,3.0,10.0,74,0.00,,,0.00,meteohub,2013-05-31 12:44:00,
2013-05-31 07:49:00,63.1,54.3,28.69,SW,225,4.0,10.0,73,0.00,,,0.00,meteohub,2013-05-31 12:49:00,
2013-05-31 07:54:00,63.3,54.9,28.69,SSE,158,4.0,11.0,74,0.00,,,0.00,meteohub,2013-05-31 12:54:00,
2013-05-31 07:59:00,63.3,54.9,28.69,SW,225,2.0,11.0,74,0.00,,,0.00,meteohub,2013-05-31 12:59:00,
2013-05-31 08:04:00,63.5,55.0,28.69,SSE,158,4.0,11.0,74,0.00,,,0.00,meteohub,2013-05-31 13:04:00,
2013-05-31 08:09:00,63.9,54.7,28.69,SSE,158,6.0,8.0,72,0.00,,,0.00,meteohub,2013-05-31 13:09:00,
2013-05-31 08:15:00,63.9,54.7,28.69,SSE,158,6.0,10.0,72,0.00,,,0.00,meteohub,2013-05-31 13:15:00,
2013-05-31 08:20:00,64.0,55.2,28.69,South,180,6.0,19.0,73,0.00,,,0.00,meteohub,2013-05-31 13:20:00,
2013-05-31 08:25:00,64.2,55.0,28.69,SSE,158,6.0,19.0,72,0.00,,,0.00,meteohub,2013-05-31 13:25:00,
2013-05-31 08:30:00,64.4,53.6,28.69,SSE,158,11.0,11.0,68,0.00,,,0.00,meteohub,2013-05-31 13:30:00,
2013-05-31 08:35:00,64.8,53.6,28.69,SSW,202,4.0,15.0,67,0.00,,,0.00,meteohub,2013-05-31 13:35:00,
2013-05-31 08:40:00,64.8,52.7,28.69,SW,225,10.0,15.0,65,0.00,,,0.00,meteohub,2013-05-31 13:40:00,
2013-05-31 08:45:00,65.1,52.7,28.69,SW,225,4.0,15.0,64,0.00,,,0.00,meteohub,2013-05-31 13:45:00,
2013-05-31 08:50:00,65.3,52.3,28.69,SSW,202,9.0,14.0,63,0.00,,,0.00,meteohub,2013-05-31 13:50:00,
2013-05-31 08:56:00,65.5,52.2,28.69,West,270,4.0,14.0,62,0.00,,,0.00,meteohub,2013-05-31 13:56:00,
2013-05-31 09:01:00,65.7,51.8,28.71,South,180,4.0,13.0,61,0.00,,,0.00,meteohub,2013-05-31 14:01:00,
2013-05-31 09:06:00,66.0,52.7,28.71,South,180,3.0,13.0,62,0.00,,,0.00,meteohub,2013-05-31 14:06:00,
2013-05-31 09:11:00,66.4,52.5,28.71,SSW,202,3.0,13.0,61,0.00,,,0.00,meteohub,2013-05-31 14:11:00,
2013-05-31 09:16:00,66.6,51.8,28.71,South,180,4.0,9.0,59,0.00,,,0.00,meteohub,2013-05-31 14:16:00,
2013-05-31 09:21:00,66.6,50.4,28.71,South,180,5.0,10.0,56,0.00,,,0.00,meteohub,2013-05-31 14:21:00,
2013-05-31 09:26:00,66.9,51.6,28.69,SSW,202,2.0,17.0,58,0.00,,,0.00,meteohub,2013-05-31 14:26:00,
2013-05-31 09:32:00,67.3,51.1,28.69,SW,225,6.0,17.0,56,0.00,,,0.00,meteohub,2013-05-31 14:32:00,
2013-05-31 09:37:00,68.2,51.4,28.69,WSW,248,5.0,17.0,55,0.00,,,0.00,meteohub,2013-05-31 14:37:00,
2013-05-31 09:42:00,68.9,52.5,28.69,SW,225,8.0,13.0,56,0.00,,,0.00,meteohub,2013-05-31 14:42:00,
2013-05-31 09:47:00,69.4,51.6,28.69,SSW,202,5.0,13.0,53,0.00,,,0.00,meteohub,2013-05-31 14:47:00,
2013-05-31 09:52:00,69.6,50.7,28.69,South,180,6.0,12.0,51,0.00,,,0.00,meteohub,2013-05-31 14:52:00,
2013-05-31 09:57:00,70.2,51.3,28.69,SW,225,6.0,11.0,51,0.00,,,0.00,meteohub,2013-05-31 14:57:00,
2013-05-31 10:02:00,70.2,50.7,28.71,SW,225,6.0,11.0,50,0.00,,,0.00,meteohub,2013-05-31 15:02:00,
2013-05-31 10:07:00,70.3,50.9,28.71,SSE,158,4.0,13.0,50,0.00,,,0.00,meteohub,2013-05-31 15:07:00,
2013-05-31 10:12:00,70.7,51.6,28.71,NE,45,6.0,13.0,51,0.00,,,0.00,meteohub,2013-05-31 15:12:00,
2013-05-31 10:17:00,70.7,51.1,28.71,WSW,248,6.0,13.0,50,0.00,,,0.00,meteohub,2013-05-31 15:17:00,
2013-05-31 10:22:00,71.1,52.0,28.71,SSW,202,6.0,13.0,51,0.00,,,0.00,meteohub,2013-05-31 15:22:00,
2013-05-31 10:27:00,71.4,52.3,28.71,WSW,248,3.0,13.0,51,0.00,,,0.00,meteohub,2013-05-31 15:27:00,
2013-05-31 10:32:00,71.6,51.4,28.69,SSW,202,9.0,13.0,49,0.00,,,0.00,meteohub,2013-05-31 15:32:00,
2013-05-31 10:37:00,71.8,51.1,28.69,South,180,11.0,11.0,48,0.00,,,0.00,meteohub,2013-05-31 15:37:00,
2013-05-31 10:42:00,71.8,51.1,28.69,South,180,6.0,16.0,48,0.00,,,0.00,meteohub,2013-05-31 15:42:00,
2013-05-31 10:47:00,72.0,51.8,28.69,South,180,9.0,16.0,49,0.00,,,0.00,meteohub,2013-05-31 15:47:00,
2013-05-31 10:52:00,72.1,51.4,28.69,SSE,158,6.0,16.0,48,0.00,,,0.00,meteohub,2013-05-31 15:52:00,
2013-05-31 10:57:00,72.3,51.6,28.69,SSW,202,3.0,12.0,48,0.00,,,0.00,meteohub,2013-05-31 15:57:00,
2013-05-31 11:02:00,72.9,51.4,28.69,WSW,248,9.0,13.0,47,0.00,,,0.00,meteohub,2013-05-31 16:02:00,
2013-05-31 11:07:00,72.7,51.3,28.69,SSW,202,3.0,13.0,47,0.00,,,0.00,meteohub,2013-05-31 16:07:00,
2013-05-31 11:12:00,73.2,51.8,28.69,SSE,158,3.0,13.0,47,0.00,,,0.00,meteohub,2013-05-31 16:12:00,
2013-05-31 11:17:00,73.6,51.6,28.69,South,180,7.0,13.0,46,0.00,,,0.00,meteohub,2013-05-31 16:17:00,
2013-05-31 11:22:00,73.9,51.8,28.69,SW,225,3.0,13.0,46,0.00,,,0.00,meteohub,2013-05-31 16:22:00,
2013-05-31 11:27:00,73.8,51.6,28.71,WSW,248,5.0,13.0,46,0.00,,,0.00,meteohub,2013-05-31 16:27:00,
2013-05-31 11:32:00,74.3,52.2,28.71,SSW,202,3.0,11.0,46,0.00,,,0.00,meteohub,2013-05-31 16:32:00,
2013-05-31 11:37:00,74.8,52.2,28.71,SSE,158,11.0,12.0,45,0.00,,,0.00,meteohub,2013-05-31 16:37:00,
2013-05-31 11:42:00,74.8,51.4,28.69,SW,225,10.0,13.0,44,0.00,,,0.00,meteohub,2013-05-31 16:42:00,
2013-05-31 11:47:00,75.0,51.1,28.69,SSW,202,9.0,13.0,43,0.00,,,0.00,meteohub,2013-05-31 16:47:00,
2013-05-31 11:52:00,74.8,50.2,28.69,SSE,158,9.0,22.0,42,0.00,,,0.00,meteohub,2013-05-31 16:52:00,
2013-05-31 11:57:00,75.4,50.7,28.69,SSE,158,5.0,23.0,42,0.00,,,0.00,meteohub,2013-05-31 16:57:00,
2013-05-31 12:02:00,75.0,51.1,28.69,WSW,248,13.0,23.0,43,0.00,,,0.00,meteohub,2013-05-31 17:02:00,
2013-05-31 12:07:00,75.2,50.5,28.69,SSE,158,6.0,23.0,42,0.00,,,0.00,meteohub,2013-05-31 17:07:00,
2013-05-31 12:12:00,75.2,51.3,28.69,SSE,158,5.0,17.0,43,0.00,,,0.00,meteohub,2013-05-31 17:12:00,
2013-05-31 12:17:00,75.4,51.3,28.69,SSE,158,6.0,17.0,43,0.00,,,0.00,meteohub,2013-05-31 17:17:00,
2013-05-31 12:22:00,75.7,51.6,28.69,SSW,202,8.0,17.0,43,0.00,,,0.00,meteohub,2013-05-31 17:22:00,
2013-05-31 12:27:00,75.2,51.8,28.69,SW,225,11.0,17.0,44,0.00,,,0.00,meteohub,2013-05-31 17:27:00,
2013-05-31 12:32:00,75.0,51.6,28.71,SSE,158,6.0,17.0,44,0.00,,,0.00,meteohub,2013-05-31 17:32:00,
2013-05-31 12:37:00,75.9,52.5,28.71,SSE,158,3.0,17.0,44,0.00,,,0.00,meteohub,2013-05-31 17:37:00,
2013-05-31 12:42:00,75.4,52.0,28.71,SSE,158,4.0,16.0,44,0.00,,,0.00,meteohub,2013-05-31 17:42:00,
2013-05-31 12:47:00,74.8,52.2,28.71,South,180,24.0,24.0,45,0.00,,,0.00,meteohub,2013-05-31 17:47:00,
2013-05-31 12:52:00,74.3,51.6,28.71,SW,225,6.0,24.0,45,0.00,,,0.00,meteohub,2013-05-31 17:52:00,
2013-05-31 12:57:00,76.1,52.7,28.71,South,180,6.0,24.0,44,0.00,,,0.00,meteohub,2013-05-31 17:57:00,
2013-05-31 13:02:00,75.6,51.4,28.71,WSW,248,7.0,24.0,43,0.00,,,0.00,meteohub,2013-05-31 18:02:00,
2013-05-31 13:07:00,77.0,52.9,28.71,South,180,9.0,15.0,43,0.00,,,0.00,meteohub,2013-05-31 18:07:00,
2013-05-31 13:12:00,76.1,51.4,28.71,South,180,10.0,15.0,42,0.00,,,0.00,meteohub,2013-05-31 18:12:00,
2013-05-31 13:17:00,77.0,52.9,28.69,SSW,202,8.0,17.0,43,0.00,,,0.00,meteohub,2013-05-31 18:17:00,
2013-05-31 13:22:00,77.2,52.3,28.69,SW,225,4.0,20.0,42,0.00,,,0.00,meteohub,2013-05-31 18:22:00,
2013-05-31 13:27:00,78.1,53.8,28.69,SW,225,7.0,20.0,43,0.00,,,0.00,meteohub,2013-05-31 18:27:00,
2013-05-31 13:32:00,76.5,52.3,28.69,WSW,248,8.0,13.0,43,0.00,,,0.00,meteohub,2013-05-31 18:32:00,
2013-05-31 13:37:00,75.6,52.2,28.69,WSW,248,7.0,15.0,44,0.00,,,0.00,meteohub,2013-05-31 18:37:00,
2013-05-31 13:42:00,75.0,51.6,28.69,West,270,6.0,15.0,44,0.00,,,0.00,meteohub,2013-05-31 18:42:00,
2013-05-31 13:47:00,75.2,52.3,28.69,WSW,248,4.0,15.0,45,0.00,,,0.00,meteohub,2013-05-31 18:47:00,
2013-05-31 13:52:00,74.8,52.2,28.69,SSW,202,6.0,14.0,45,0.00,,,0.00,meteohub,2013-05-31 18:52:00,
2013-05-31 13:57:00,74.3,51.6,28.69,SW,225,13.0,15.0,45,0.00,,,0.00,meteohub,2013-05-31 18:57:00,
2013-05-31 14:02:00,74.3,51.6,28.69,SSW,202,9.0,15.0,45,0.00,,,0.00,meteohub,2013-05-31 19:02:00,
2013-05-31 14:07:00,75.2,53.1,28.69,SSW,202,6.0,15.0,46,0.00,,,0.00,meteohub,2013-05-31 19:07:00,
2013-05-31 14:12:00,77.2,54.9,28.66,SSW,202,14.0,15.0,46,0.00,,,0.00,meteohub,2013-05-31 19:12:00,
2013-05-31 14:17:00,78.1,53.8,28.66,SSW,202,9.0,14.0,43,0.00,,,0.00,meteohub,2013-05-31 19:17:00,
2013-05-31 14:22:00,79.3,54.3,28.66,WSW,248,6.0,20.0,42,0.00,,,0.00,meteohub,2013-05-31 19:22:00,
2013-05-31 14:27:00,78.8,51.8,28.66,SSW,202,9.0,20.0,39,0.00,,,0.00,meteohub,2013-05-31 19:27:00,
2013-05-31 14:32:00,78.6,50.9,28.66,SSW,202,13.0,23.0,38,0.00,,,0.00,meteohub,2013-05-31 19:32:00,
2013-05-31 14:37:00,78.4,49.3,28.66,SSW,202,9.0,23.0,36,0.00,,,0.00,meteohub,2013-05-31 19:37:00,
2013-05-31 14:42:00,77.4,48.4,28.66,SW,225,11.0,23.0,36,0.00,,,0.00,meteohub,2013-05-31 19:42:00,
2013-05-31 14:47:00,77.7,49.5,28.69,SSW,202,7.0,20.0,37,0.00,,,0.00,meteohub,2013-05-31 19:47:00,
2013-05-31 14:52:00,77.5,48.6,28.69,South,180,17.0,19.0,36,0.00,,,0.00,meteohub,2013-05-31 19:52:00,
2013-05-31 14:57:00,78.1,49.6,28.69,SSE,158,7.0,19.0,37,0.00,,,0.00,meteohub,2013-05-31 19:57:00,
2013-05-31 15:02:00,76.1,48.7,28.69,SW,225,8.0,19.0,38,0.00,,,0.00,meteohub,2013-05-31 20:02:00,
2013-05-31 15:07:00,76.5,49.6,28.69,SSW,202,6.0,17.0,39,0.00,,,0.00,meteohub,2013-05-31 20:07:00,
2013-05-31 15:12:00,77.0,50.2,28.69,SW,225,8.0,17.0,39,0.00,,,0.00,meteohub,2013-05-31 20:12:00,
2013-05-31 15:17:00,75.7,49.6,28.66,SW,225,10.0,18.0,40,0.00,,,0.00,meteohub,2013-05-31 20:17:00,
2013-05-31 15:22:00,75.2,49.3,28.66,SW,225,15.0,20.0,40,0.00,,,0.00,meteohub,2013-05-31 20:22:00,
2013-05-31 15:27:00,76.8,51.3,28.66,SW,225,6.0,20.0,41,0.00,,,0.00,meteohub,2013-05-31 20:27:00,
2013-05-31 15:32:00,77.4,50.5,28.66,SW,225,15.0,20.0,39,0.00,,,0.00,meteohub,2013-05-31 20:32:00,
2013-05-31 15:37:00,78.1,51.1,28.66,SW,225,8.0,15.0,39,0.00,,,0.00,meteohub,2013-05-31 20:37:00,
2013-05-31 15:42:00,77.7,50.2,28.69,South,180,6.0,15.0,38,0.00,,,0.00,meteohub,2013-05-31 20:42:00,
2013-05-31 15:47:00,77.9,50.2,28.69,SW,225,6.0,15.0,38,0.00,,,0.00,meteohub,2013-05-31 20:47:00,
2013-05-31 15:52:00,76.3,49.5,28.69,SW,225,8.0,15.0,39,0.00,,,0.00,meteohub,2013-05-31 20:52:00,
2013-05-31 15:58:00,76.5,50.4,28.69,SSE,158,4.0,19.0,40,0.00,,,0.00,meteohub,2013-05-31 20:58:00,
2013-05-31 16:03:00,77.5,50.7,28.69,WSW,248,6.0,19.0,39,0.00,,,0.00,meteohub,2013-05-31 21:03:00,
2013-05-31 16:08:00,76.5,49.6,28.69,WSW,248,8.0,15.0,39,0.00,,,0.00,meteohub,2013-05-31 21:08:00,
2013-05-31 16:13:00,76.8,50.7,28.69,West,270,10.0,13.0,40,0.00,,,0.00,meteohub,2013-05-31 21:13:00,
2013-05-31 16:18:00,76.5,50.4,28.69,SW,225,6.0,11.0,40,0.00,,,0.00,meteohub,2013-05-31 21:18:00,
2013-05-31 16:23:00,75.9,49.3,28.69,SSW,202,5.0,13.0,39,0.00,,,0.00,meteohub,2013-05-31 21:23:00,
2013-05-31 16:28:00,75.6,48.2,28.69,WSW,248,12.0,13.0,38,0.00,,,0.00,meteohub,2013-05-31 21:28:00,
2013-05-31 16:34:00,75.6,48.9,28.69,SW,225,4.0,13.0,39,0.00,,,0.00,meteohub,2013-05-31 21:34:00,
2013-05-31 16:39:00,75.2,48.6,28.69,SSW,202,6.0,13.0,39,0.00,,,0.00,meteohub,2013-05-31 21:39:00,
2013-05-31 16:44:00,75.2,48.6,28.69,SSW,202,3.0,17.0,39,0.00,,,0.00,meteohub,2013-05-31 21:44:00,
2013-05-31 16:49:00,74.7,48.0,28.69,SW,225,7.0,17.0,39,0.00,,,0.00,meteohub,2013-05-31 21:49:00,
2013-05-31 16:54:00,74.1,47.7,28.69,SW,225,11.0,13.0,39,0.00,,,0.00,meteohub,2013-05-31 21:54:00,
2013-05-31 16:59:00,74.1,47.7,28.69,SSW,202,8.0,15.0,39,0.00,,,0.00,meteohub,2013-05-31 21:59:00,
2013-05-31 17:04:00,74.1,47.7,28.69,SW,225,5.0,15.0,39,0.00,,,0.00,meteohub,2013-05-31 22:04:00,
2013-05-31 17:09:00,73.9,47.5,28.69,SSW,202,8.0,15.0,39,0.00,,,0.00,meteohub,2013-05-31 22:09:00,
2013-05-31 17:15:00,73.8,47.3,28.69,WSW,248,6.0,14.0,39,0.00,,,0.00,meteohub,2013-05-31 22:15:00,
2013-05-31 17:20:00,73.9,47.5,28.69,West,270,2.0,15.0,39,0.00,,,0.00,meteohub,2013-05-31 22:20:00,
2013-05-31 17:25:00,73.9,47.5,28.69,South,180,7.0,15.0,39,0.00,,,0.00,meteohub,2013-05-31 22:25:00,
2013-05-31 17:30:00,73.8,47.3,28.69,SW,225,6.0,11.0,39,0.00,,,0.00,meteohub,2013-05-31 22:30:00,
2013-05-31 17:35:00,73.9,47.5,28.69,WSW,248,6.0,12.0,39,0.00,,,0.00,meteohub,2013-05-31 22:35:00,
2013-05-31 17:40:00,73.8,48.0,28.69,WSW,248,5.0,12.0,40,0.00,,,0.00,meteohub,2013-05-31 22:40:00,
2013-05-31 17:45:00,73.2,47.5,28.69,SW,225,9.0,13.0,40,0.00,,,0.00,meteohub,2013-05-31 22:45:00,
2013-05-31 17:50:00,73.0,47.3,28.69,WSW,248,4.0,13.0,40,0.00,,,0.00,meteohub,2013-05-31 22:50:00,
2013-05-31 17:56:00,73.4,47.7,28.69,SW,225,3.0,13.0,40,0.00,,,0.00,meteohub,2013-05-31 22:56:00,
2013-05-31 18:01:00,73.2,48.2,28.69,SSW,202,4.0,12.0,41,0.00,,,0.00,meteohub,2013-05-31 23:01:00,
2013-05-31 18:06:00,72.9,47.1,28.69,WSW,248,10.0,14.0,40,0.00,,,0.00,meteohub,2013-05-31 23:06:00,
2013-05-31 18:11:00,72.9,47.8,28.69,SSE,158,5.0,14.0,41,0.00,,,0.00,meteohub,2013-05-31 23:11:00,
2013-05-31 18:16:00,73.2,48.2,28.69,SW,225,6.0,14.0,41,0.00,,,0.00,meteohub,2013-05-31 23:16:00,
2013-05-31 18:21:00,74.7,49.5,28.69,SSW,202,6.0,11.0,41,0.00,,,0.00,meteohub,2013-05-31 23:21:00,
2013-05-31 18:26:00,74.5,49.3,28.69,SW,225,7.0,10.0,41,0.00,,,0.00,meteohub,2013-05-31 23:26:00,
2013-05-31 18:31:00,73.9,48.7,28.69,SW,225,9.0,10.0,41,0.00,,,0.00,meteohub,2013-05-31 23:31:00,
2013-05-31 18:37:00,73.4,48.2,28.69,SW,225,5.0,9.0,41,0.00,,,0.00,meteohub,2013-05-31 23:37:00,
2013-05-31 18:42:00,73.0,48.6,28.69,WSW,248,3.0,12.0,42,0.00,,,0.00,meteohub,2013-05-31 23:42:00,
2013-05-31 18:47:00,72.7,48.2,28.69,SSW,202,4.0,12.0,42,0.00,,,0.00,meteohub,2013-05-31 23:47:00,
2013-05-31 18:52:00,72.3,48.0,28.69,SSE,158,4.0,12.0,42,0.00,,,0.00,meteohub,2013-05-31 23:52:00,
2013-05-31 18:57:00,72.0,48.2,28.69,South,180,1.0,6.0,43,0.00,,,0.00,meteohub,2013-05-31 23:57:00,
2013-05-31 19:02:00,72.0,48.2,28.69,SW,225,0.0,6.0,43,0.00,,,0.00,meteohub,2013-06-01 00:02:00,
2013-05-31 19:07:00,71.6,48.6,28.69,SSE,158,0.0,3.0,44,0.00,,,0.00,meteohub,2013-06-01 00:07:00,
2013-05-31 19:12:00,71.6,48.6,28.69,SW,225,1.0,3.0,44,0.00,,,0.00,meteohub,2013-06-01 00:12:00,
2013-05-31 19:17:00,71.4,48.9,28.69,SSW,202,2.0,2.0,45,0.00,,,0.00,meteohub,2013-06-01 00:17:00,
2013-05-31 19:22:00,71.4,48.9,28.69,SW,225,0.0,3.0,45,0.00,,,0.00,meteohub,2013-06-01 00:22:00,
2013-05-31 19:27:00,71.2,48.7,28.71,SSW,202,3.0,3.0,45,0.00,,,0.00,meteohub,2013-06-01 00:27:00,
2013-05-31 19:32:00,71.2,48.7,28.71,SSW,202,1.0,4.0,45,0.00,,,0.00,meteohub,2013-06-01 00:32:00,
2013-05-31 19:37:00,70.9,48.6,28.71,SSW,202,3.0,4.0,45,0.00,,,0.00,meteohub,2013-06-01 00:37:00,
2013-05-31 19:42:00,70.9,48.6,28.71,SW,225,4.0,7.0,45,0.00,,,0.00,meteohub,2013-06-01 00:42:00,
2013-05-31 19:47:00,70.5,48.2,28.71,WSW,248,1.0,7.0,45,0.00,,,0.00,meteohub,2013-06-01 00:47:00,
2013-05-31 19:52:00,70.5,48.2,28.71,SSW,202,0.0,4.0,45,0.00,,,0.00,meteohub,2013-06-01 00:52:00,
2013-05-31 19:57:00,70.3,48.6,28.71,SW,225,0.0,4.0,46,0.00,,,0.00,meteohub,2013-06-01 00:57:00,
2013-05-31 20:02:00,70.2,48.4,28.74,SSW,202,0.0,4.0,46,0.00,,,0.00,meteohub,2013-06-01 01:02:00,
2013-05-31 20:07:00,70.0,48.2,28.74,SW,225,0.0,4.0,46,0.00,,,0.00,meteohub,2013-06-01 01:07:00,
2013-05-31 20:12:00,69.8,48.0,28.71,SW,225,3.0,0.0,46,0.00,,,0.00,meteohub,2013-06-01 01:12:00,
2013-05-31 20:17:00,69.8,48.0,28.71,SSW,202,4.0,4.0,46,0.00,,,0.00,meteohub,2013-06-01 01:17:00,
2013-05-31 20:22:00,69.6,48.6,28.71,SSW,202,4.0,4.0,47,0.00,,,0.00,meteohub,2013-06-01 01:22:00,
2013-05-31 20:27:00,69.6,48.6,28.71,SW,225,1.0,4.0,47,0.00,,,0.00,meteohub,2013-06-01 01:27:00,
2013-05-31 20:32:00,69.4,48.4,28.71,SW,225,2.0,4.0,47,0.00,,,0.00,meteohub,2013-06-01 01:32:00,
2013-05-31 20:37:00,69.4,47.8,28.71,SSW,202,4.0,4.0,46,0.00,,,0.00,meteohub,2013-06-01 01:37:00,
2013-05-31 20:42:00,69.4,48.4,28.71,SW,225,0.0,4.0,47,0.00,,,0.00,meteohub,2013-06-01 01:42:00,
2013-05-31 20:47:00,69.1,48.0,28.71,SW,225,0.0,4.0,47,0.00,,,0.00,meteohub,2013-06-01 01:47:00,
2013-05-31 20:52:00,68.9,47.8,28.71,SW,225,0.0,4.0,47,0.00,,,0.00,meteohub,2013-06-01 01:52:00,
2013-05-31 20:57:00,68.7,47.7,28.71,SW,225,0.0,4.0,47,0.00,,,0.00,meteohub,2013-06-01 01:57:00,
2013-05-31 21:02:00,68.5,48.0,28.71,SW,225,0.0,4.0,48,0.00,,,0.00,meteohub,2013-06-01 02:02:00,
2013-05-31 21:07:00,68.5,48.0,28.71,SW,225,1.0,4.0,48,0.00,,,0.00,meteohub,2013-06-01 02:07:00,
2013-05-31 21:12:00,68.4,47.8,28.69,SW,225,0.0,2.0,48,0.00,,,0.00,meteohub,2013-06-01 02:12:00,
2013-05-31 21:17:00,68.2,47.8,28.69,SW,225,1.0,2.0,48,0.00,,,0.00,meteohub,2013-06-01 02:17:00,
2013-05-31 21:22:00,68.2,47.8,28.69,SW,225,0.0,2.0,48,0.00,,,0.00,meteohub,2013-06-01 02:22:00,
2013-05-31 21:27:00,68.0,48.2,28.69,SSW,202,0.0,2.0,49,0.00,,,0.00,meteohub,2013-06-01 02:27:00,
2013-05-31 21:32:00,67.8,48.0,28.71,SSW,202,0.0,2.0,49,0.00,,,0.00,meteohub,2013-06-01 02:32:00,
2013-05-31 21:37:00,67.5,48.2,28.71,SSW,202,0.0,1.0,50,0.00,,,0.00,meteohub,2013-06-01 02:37:00,
2013-05-31 21:42:00,67.1,47.8,28.69,SSW,202,0.0,0.0,50,0.00,,,0.00,meteohub,2013-06-01 02:42:00,
2013-05-31 21:47:00,66.9,48.2,28.69,SSW,202,0.0,0.0,51,0.00,,,0.00,meteohub,2013-06-01 02:47:00,
2013-05-31 21:52:00,66.7,48.0,28.69,SSW,202,0.0,0.0,51,0.00,,,0.00,meteohub,2013-06-01 02:52:00,
2013-05-31 21:57:00,66.6,48.4,28.69,SSW,202,0.0,0.0,52,0.00,,,0.00,meteohub,2013-06-01 02:57:00,
2013-05-31 22:02:00,66.2,48.6,28.71,SSW,202,0.0,0.0,53,0.00,,,0.00,meteohub,2013-06-01 03:02:00,
2013-05-31 22:07:00,66.0,48.9,28.71,South,180,0.0,0.0,54,0.00,,,0.00,meteohub,2013-06-01 03:07:00,
2013-05-31 22:12:00,65.5,48.9,28.69,South,180,0.0,0.0,55,0.00,,,0.00,meteohub,2013-06-01 03:12:00,
2013-05-31 22:17:00,65.1,48.6,28.69,South,180,0.0,0.0,55,0.00,,,0.00,meteohub,2013-06-01 03:17:00,
2013-05-31 22:22:00,65.1,48.6,28.69,SSE,158,0.0,0.0,55,0.00,,,0.00,meteohub,2013-06-01 03:22:00,
2013-05-31 22:27:00,65.8,49.6,28.71,SSE,158,3.0,0.0,56,0.00,,,0.00,meteohub,2013-06-01 03:27:00,
2013-05-31 22:32:00,65.8,49.6,28.71,SSE,158,0.0,3.0,56,0.00,,,0.00,meteohub,2013-06-01 03:32:00,
2013-05-31 22:37:00,65.5,50.4,28.71,SSE,158,0.0,3.0,58,0.00,,,0.00,meteohub,2013-06-01 03:37:00,
2013-05-31 22:42:00,65.5,52.5,28.74,SSE,158,1.0,3.0,63,0.00,,,0.00,meteohub,2013-06-01 03:42:00,
2013-05-31 22:47:00,65.1,54.3,28.74,SSE,158,2.0,2.0,68,0.00,,,0.00,meteohub,2013-06-01 03:47:00,
2013-05-31 22:52:00,65.1,54.7,28.74,SSE,158,0.0,3.0,69,0.00,,,0.00,meteohub,2013-06-01 03:52:00,
2013-05-31 22:57:00,64.9,54.5,28.74,SSE,158,0.0,3.0,69,0.00,,,0.00,meteohub,2013-06-01 03:57:00,
2013-05-31 23:01:00,64.8,54.3,28.74,SSE,158,2.0,3.0,69,0.00,,,0.00,meteohub,2013-06-01 04:01:00,
2013-05-31 23:02:00,64.8,54.3,28.74,SSE,158,0.0,3.0,69,0.00,,,0.00,meteohub,2013-06-01 04:02:00,
2013-05-31 23:05:00,64.8,54.3,28.74,SSE,158,0.0,3.0,69,0.00,,,0.00,meteohub,2013-06-01 04:05:00,
2013-05-31 23:10:00,64.4,53.6,28.74,SSE,158,0.0,2.0,68,0.00,,,0.00,meteohub,2013-06-01 04:10:00,
2013-05-31 23:15:00,64.0,53.6,28.74,SSE,158,0.0,2.0,69,0.00,,,0.00,meteohub,2013-06-01 04:15:00,
2013-05-31 23:20:00,63.9,53.4,28.74,South,180,0.0,1.0,69,0.00,,,0.00,meteohub,2013-06-01 04:20:00,
2013-05-31 23:25:00,63.5,52.7,28.74,SSE,158,0.0,0.0,68,0.00,,,0.00,meteohub,2013-06-01 04:25:00,
2013-05-31 23:30:00,63.5,52.7,28.74,SE,135,0.0,0.0,68,0.00,,,0.00,meteohub,2013-06-01 04:30:00,
2013-05-31 23:35:00,63.0,52.7,28.74,South,180,0.0,0.0,69,0.00,,,0.00,meteohub,2013-06-01 04:35:00,
2013-05-31 23:41:00,62.6,52.3,28.74,South,180,0.0,0.0,69,0.00,,,0.00,meteohub,2013-06-01 04:41:00,
2013-05-31 23:46:00,62.2,52.7,28.74,SE,135,0.0,0.0,71,0.00,,,0.00,meteohub,2013-06-01 04:46:00,
2013-05-31 23:51:00,62.1,52.2,28.74,SSE,158,0.0,0.0,70,0.00,,,0.00,meteohub,2013-06-01 04:51:00,
2013-05-31 23:56:00,62.2,52.3,28.74,South,180,0.0,0.0,70,0.00,,,0.00,meteohub,2013-06-01 04:56:00,